Tracking 19792 objects as of 15-Jul-2019
HD Live streaming from Space Station
objects crossing your sky now

ERS 9

Track ERS 9 now!
10-day predictions
ERS 9 is classified as:


NORAD ID: 635
Int'l Code: 1963-030B
Perigee: 3,647.6 km
Apogee: 3,769.2 km
Inclination: 88.4 °
Period: 167.8 minutes
Semi major axis: 10079 km
RCS: 0.0885 m2 (small)
Launch date: July 19, 1963
Source: United States (US)
Launch site: AIR FORCE WESTERN TEST RANGE (AFWTR)
aabbcc
Your satellite tracking list
Your tracking list is empty




NASA's NSSDC Master Catalog

Two Line Element Set (TLE):
1   635U 63030B   19195.59405147 +.00000003 +00000-0 +56653-4 0  9998
2   635 088.4334 356.6804 0060302 052.6340 307.9983 08.57926118753493
Source of the keplerian elements: AFSPC